Location: *
(50.5492°N, 7.7469°E)
Time: 10:19:07
(UTC+00:00)

HJ-1C - Pass Details

Date: 21 October 2019
Orbit: 433 x 449 km, 97.2° (Epoch: 18 November)

Event Time Altitude Azimuth Distance (km) Brightness Sun altitude
Exits shadow 17:55:04 31° 90° (E) 809 4.1 -14.9°
Maximum altitude 17:55:35 33° 70° (ENE) 776 4.1 -15.0°
Drops below altitude 10° 17:58:39 10° 4° (N) 1,577 6.1 -15.4°
Sets 18:00:48 0° 355° (N) 2,450 7.2 -15.8°
